Shenzhen Bao'an International Airport

Airport
ICAO code: 
ZGSZ
IATA Code: 
SZX
Summary
ICAO Region: 
APAC
Territory: 
Location: 
Bao'an, Shenzhen, Guangdong
Serving: 
Shenzhen
Elevation: 
13 ft
Coordinates: 
Aerial View: 
22° 38' 21.329" N, 113° 48' 38.39" E
Metar
Observation
ZGSZ 240600Z 28003MPS 4200 BR FEW015 BKN033 22/19 Q1012 NOSIG
Station
Shenzhen
Date/Time
2022-01-24 06:00:00
Wind direction
280°
Lowest cloud amount
few clouds
Temperature
22°C
Dew point
19°C
Humidity
83%
QNH
1012 hPa
Weather condition
n/a

Description

Shenzhen Bao'an International Airport is located in the Bao'an District, Shenzhen, Guangdong, China. It is 32 km northwest of the city center.

Climatology

Within the Köppen Climate Classification System, ((Koppen climate classification Cwa)) this climate type generally has warm and humid summers with mild winters. Its extent is from 30 to 50° of latitude mainly on the eastern and western borders of most continents. During the winter, the main weather feature is the mid-latitude cyclone. Convective thunderstorms provide precipitation in the summer months.

Runways

Designator Length Width Surface Rops
15/33 3400 45 CON Yes/Yes
Airport map: 
Aerial View: 

SKYbrary Partners:

Safety knowledge contributed by: